Location: Mahannah Oil Field
(37.4664°N, 96.6003°W)
Time: 01:01:52
(UTC+00:00)

deb Explorer IX - Pass Details

Date: 01 February 2021
Orbit: 538 x 1101 km, 38.8° (Epoch: 06 March)

Event Time Altitude Azimuth Distance (km) Brightness Sun altitude
Rises 01:38:55 0° 285° (WNW) 3,749 ? -21.8°
Reaches altitude 10° 01:41:48 10° 281° (WNW) 2,724 ? -22.4°
Maximum altitude 01:48:10 56° 206° (SSW) 1,035 ? -23.6°
Enters shadow 01:50:19 36° 147° (SSE) 1,300 ? -24.1°
